Home > Weather > Taichung > Past weeks

Flag for Taiwan Weather for the Past 2 Weeks in Taichung, Taiwan

Now
46 °F

Passing clouds.


Feels Like: 42 °F
Forecast: 49 / 71 °F
Wind: 9 mph from Southeast

Location: Chiang Kai Shek

Current Time: Feb 8, 2016 at 8:39:13 AM

Latest Report: Feb 8, 2016 at 7:30 AM


Visibility: N/A

Pressure: 30.30 "Hg

Humidity: 62%

Dew point: 34 °F

Location of TaichungLocation

Historic Weather in Taichung — Graph

°F

Taichung Temperature Yesterday

Maximum temperature yesterday: 55 °F (at 10:30 AM)
Minimum temperature yesterday: 46 °F (at 11:30 PM)
Average temperature yesterday: 52 °F

High & Low Weather Summary for the Past Weeks

 TemperatureHumidityPressure
High68 °F (Jan 27, 1:00 PM)100% (Jan 28, 12:30 PM)30.63 "Hg (Jan 28, 12:30 PM)
Low41 °F (Jan 24, 11:00 AM)47% (Feb 6, 11:30 AM)30.01 "Hg (Jan 29, 4:30 AM)
Average56 °F78%30.25 "Hg
* Reported Jan 24 7:00 AM — Feb 8 7:00 AM, Taichung, Weather by CustomWeather, © 2016

Note: Actual official high and low records may vary slightly from our data, if they occured in-between our weather recording intervals... More about our weather records

Advertising

Taichung Weather History for the Previous 24 Hours

 ConditionsComfort  
Time TempWeatherWind HumidityBarometerVisibility
7:00 AM
Mon, Feb 8
45 °FPassing clouds.8 mph61%30.30 "HgN/A
6:30 AM45 °FPassing clouds.10 mph61%30.30 "HgN/A
6:00 AM45 °FPassing clouds.8 mph66%30.27 "HgN/A
5:30 AM45 °FPassing clouds.7 mph61%30.27 "HgN/A
5:00 AM45 °FPassing clouds.7 mph61%30.27 "HgN/A
4:30 AM45 °FPassing clouds.8 mph61%30.27 "HgN/A
4:00 AM45 °FPassing clouds.3 mph61%30.27 "HgN/A
3:30 AM45 °FPassing clouds.8 mph61%30.27 "HgN/A
3:00 AM45 °FPassing clouds.9 mph61%30.27 "HgN/A
2:30 AM45 °FPassing clouds.7 mph66%30.27 "HgN/A
2:00 AM45 °FPassing clouds.6 mph66%30.30 "HgN/A
1:30 AM45 °FPassing clouds.7 mph66%30.30 "HgN/A
1:00 AM46 °FPassing clouds.2 mph66%30.30 "HgN/A
12:30 AM48 °FClear.5 mph62%30.30 "Hg10 mi
12:00 AM46 °FClear.2 mph66%30.30 "Hg10 mi
11:30 PM
Sun, Feb 7
46 °FPassing clouds.6 mph71%30.30 "HgN/A
11:00 PM48 °FPassing clouds.5 mph62%30.30 "HgN/A
10:30 PM50 °FPassing clouds.5 mph62%30.30 "HgN/A
10:00 PM50 °FPassing clouds.7 mph62%30.30 "HgN/A
9:30 PM50 °FPassing clouds.8 mph62%30.30 "HgN/A
9:00 PM48 °FClear.6 mph66%30.30 "Hg10 mi
8:30 PM52 °FClear.6 mph54%30.30 "Hg10 mi
8:00 PM52 °FPassing clouds.6 mph54%30.30 "HgN/A
7:30 PM52 °FPassing clouds.6 mph54%30.30 "HgN/A
7:00 PM52 °FPassing clouds.6 mph50%30.30 "HgN/A
6:30 PM52 °FPassing clouds.5 mph50%30.27 "HgN/A
6:00 PM50 °FClear.6 mph58%30.27 "Hg10 mi
5:30 PM54 °FPassing clouds.8 mph51%30.27 "HgN/A
5:00 PM54 °FPassing clouds.10 mph47%30.27 "HgN/A
4:30 PM54 °FPassing clouds.10 mph51%30.27 "HgN/A
4:00 PM55 °FPassing clouds.14 mph47%30.24 "HgN/A
3:30 PM55 °FPassing clouds.13 mph51%30.24 "HgN/A
3:00 PM55 °FPassing clouds.13 mph47%30.24 "HgN/A
2:30 PM55 °FPassing clouds.15 mph51%30.24 "HgN/A
2:00 PM55 °FPassing clouds.17 mph55%30.24 "HgN/A
1:30 PM55 °FPassing clouds.16 mph51%30.24 "HgN/A
1:00 PM55 °FPassing clouds.16 mph51%30.27 "HgN/A
12:30 PM55 °FPassing clouds.15 mph51%30.30 "HgN/A
12:00 PM55 °FPassing clouds.15 mph51%30.30 "HgN/A
11:30 AM55 °FPassing clouds.16 mph51%30.30 "HgN/A
11:00 AM55 °FPassing clouds.15 mph51%30.30 "HgN/A
10:30 AM55 °FPassing clouds.16 mph47%30.33 "HgN/A
10:00 AM54 °FPassing clouds.17 mph54%30.33 "Hg6 mi
9:30 AM54 °FPassing clouds.18 mph54%30.33 "Hg5 mi
9:00 AM54 °FPassing clouds.18 mph51%30.33 "Hg5 mi
8:00 AM52 °FScattered clouds.14 mph54%30.33 "Hg5 mi
Weather by CustomWeather, © 2016

See weather overviewHow to use our weather pages